Temperature
18 17 17 17 16 16 16 15 15 15 14 14 14 14 14 13 13 13 13 13 13 13 13 13 12 12 13 13 13 13 13 13 14 14 13 13 13 13 14 14 14 14 14
18 17 17 17 16 16 16 15 15 15 14 14 14 14 14 14 13 13 13 13 13 13 13 13 13 13 12 13 13 13 13 13 13 13 13 13 13 13 13 14 14 14 14
18 17 17 16 16 16 16 15 15 15 15 14 14 14 14 14 14 13 13 13 13 13 13 13 13 13 12 13 13 13 13 13 13 13 13 13 13 13 13 13 13 14 14
17 17 17 16 16 16 16 15 15 15 15 14 14 14 14 14 14 14 13 13 13 13 13 13 13 13 13 12 12 12 13 13 13 13 13 13 13 13 13 13 13 13 13
17 17 16 16 16 16 16 16 15 15 15 15 14 14 14 14 14 14 14 13 13 13 13 13 13 13 13 13 13 12 12 13 13 13 13 13 12 12 12 12 13 13 13
16 16 16 16 16 16 16 16 15 15 15 15 15 14 14 14 14 14 14 13 14 13 13 13 13 13 13 13 13 13 13 12 13 13 13 13 12 12 12 12 12 13 13
15 15 15 15 15 15 15 15 15 15 15 15 15 14 14 14 14 14 14 14 14 14 14 13 13 13 13 13 13 13 13 13 13 12 13 13 12 12 12 12 12 12 12
15 14 14 15 15 15 15 15 15 15 14 15 15 14 14 14 15 14 14 14 14 14 13 13 13 13 13 13 13 12 12 13 13 12 12 12 12 12 12 12 12 12 12
14 14 14 14 14 14 14 14 14 14 14 14 14 14 14 14 15 14 14 14 13 14 13 13 13 13 13 13 13 12 12 12 13 13 12 12 12 12 12 12 12 12 12
14 13 13 13 13 14 14 14 14 14 14 14 14 14 14 14 14 14 14 13 13 14 14 14 14 13 13 13 13 13 12 12 12 12 12 12 12 12 12 11 11 11 12
13 13 13 13 13 13 13 13 13 13 13 13 13 14 14 14 14 14 14 13 13 14 14 14 13 14 14 13 13 13 13 12 12 12 12 12 12 11 11 11 11 11 11
12 12 12 12 12 13 13 13 13 13 13 13 13 13 13 13 14 14 14 14 13 13 13 14 14 14 14 13 13 13 13 12 12 12 12 12 11 11 11 11 11 11 11
11 11 11 11 12 12 12 12 12 12 12 12 12 12 13 13 13 13 13 14 13 13 13 13 13 13 13 13 13 13 12 12 12 12 12 11 11 11 11 11 11 11 11
10 10 11 11 11 11 11 11 11 11 11 11 11 12 12 12 12 13 13 13 13 13 13 13 13 13 13 12 12 12 12 12 11 11 11 11 11 11 11 11 10 10 10
10 10 10 10 10 10 10 10 10 10 10 10 10 11 11 11 12 12 12 12 12 12 12 12 12 12 12 12 11 11 11 11 11 11 11 11 11 10 10 10 10 10 10
9 9 9 9 9 9 9 9 10 10 10 10 10 10 10 11 11 11 12 12 12 12 11 11 11 12 12 12 11 11 11 11 11 11 11 10 10 10 10 10 10 9 9
8 8 8 8 8 8 8 8 9 9 9 10 10 10 10 10 11 11 11 11 11 11 11 11 11 11 12 11 11 11 11 11 11 10 10 10 10 10 10 9 9 9 9
8 8 8 7 7 7 7 7 8 8 8 9 9 9 9 10 10 10 10 10 10 10 10 11 11 11 11 11 11 11 11 10 10 10 10 10 10 10 9 9 9 9 8
7 7 7 7 7 7 7 7 7 7 7 8 8 8 9 9 9 9 9 9 9 10 10 10 11 11 11 11 11 11 11 10 10 10 10 10 9 9 9 9 9 8 8
7 6 6 6 6 6 6 6 6 6 7 7 7 7 7 8 8 8 8 9 9 9 9 10 10 11 11 11 11 11 10 10 10 10 9 9 9 9 9 8 8 8 8
6 6 6 6 6 6 6 6 6 6 6 6 6 6 6 6 7 7 8 8 8 8 9 9 10 10 10 10 10 10 10 10 10 10 9 9 9 9 8 8 8 8 7
6 6 6 6 5 5 5 5 5 5 5 5 6 6 6 6 6 7 7 7 8 8 8 9 9 9 10 10 10 10 10 10 10 9 9 9 9 8 8 8 8 7 7
5 5 5 5 5 5 5 5 5 5 5 5 5 5 5 5 6 6 6 7 7 8 8 8 8 9 9 9 10 10 10 10 10 10 9 9 8 8 8 8 7 7 7
5 5 5 5 5 5 5 4 4 4 4 4 4 5 5 5 5 5 6 6 7 7 8 8 8 8 9 9 9 10 10 10 9 9 9 9 8 8 7 7 7 7 6
5 5 5 5 5 4 4 4 4 4 4 4 4 4 4 4 5 5 5 6 6 7 7 8 8 8 8 9 9 9 9 9 9 9 9 8 8 8 7 7 7 6 6
5 4 4 4 4 4 4 4 4 3 3 3 3 4 4 4 4 5 5 5 6 6 7 7 7 8 8 8 8 9 9 9 9 9 8 8 8 7 7 7 6 6 5
Wind_Speed
5 6 7 7 7 8 8 8 7 7 7 7 6 6 5 5 4 4 4 4 4 3 3 3 3 2 2 2 2 2 3 3 3 2 2 2 2 1 1 2 2 3 4
4 5 6 6 7 8 8 9 9 8 8 8 7 7 6 6 6 5 5 5 4 4 4 3 3 2 3 3 2 3 3 3 3 3 2 2 2 1 1 2 2 2 2
3 4 5 6 7 8 9 9 9 9 9 9 9 8 8 7 7 7 6 6 5 5 4 4 4 3 4 3 3 3 3 2 3 3 2 2 2 2 2 2 2 1 1
3 3 5 6 6 7 8 8 9 9 10 10 10 9 9 9 8 8 8 7 7 6 6 5 5 5 5 4 4 3 3 3 3 3 3 3 2 2 2 2 2 2 1
4 4 4 6 6 7 7 8 9 9 10 11 11 11 10 9 9 9 9 9 8 7 7 7 6 5 4 4 4 3 4 4 3 3 3 3 3 3 3 2 2 1 1
5 5 5 6 6 6 7 8 8 9 10 10 11 12 12 10 8 9 11 10 10 9 9 8 7 8 8 8 6 5 5 5 4 4 4 4 4 3 2 3 3 3 2
7 7 7 7 7 7 7 8 8 9 10 11 11 12 13 13 11 12 14 12 12 11 10 9 7 7 8 8 9 10 8 7 6 6 5 5 4 4 4 4 4 3 2
8 8 8 8 8 8 8 8 9 10 10 10 11 13 13 13 12 13 14 15 14 13 12 11 10 10 10 9 9 9 8 8 8 7 6 4 3 3 4 4 3 3 2
10 10 10 10 9 9 9 10 10 10 10 11 11 12 13 14 13 15 14 13 14 15 13 13 12 12 9 10 10 10 9 7 5 4 1 0 2 1 2 4 5 5 4
11 12 11 11 10 11 11 11 10 10 11 11 12 12 14 15 12 14 16 13 14 14 12 13 13 13 10 13 13 11 11 9 8 7 6 6 6 5 5 6 5 5 4
12 12 12 12 12 12 11 11 10 10 11 11 13 12 13 14 13 14 17 14 14 14 12 12 11 14 13 14 14 12 10 8 8 8 7 6 6 5 6 5 5 4 4
12 12 12 12 12 11 11 11 11 11 11 11 12 13 11 12 12 12 16 19 16 15 13 12 11 14 16 15 14 10 8 8 8 8 7 7 7 6 5 5 4 3 2
13 13 13 13 12 12 12 12 11 10 10 11 11 11 11 10 10 11 15 17 18 16 13 11 9 12 14 13 14 12 11 10 10 9 9 8 7 7 6 5 5 4 4
14 14 13 13 13 13 11 11 10 10 10 11 11 12 12 11 10 8 9 11 13 15 14 11 10 11 12 10 11 12 11 11 11 10 9 8 7 7 7 6 6 5 5
14 13 14 13 13 13 13 11 12 12 11 12 12 13 13 13 11 10 10 10 10 11 11 11 11 11 12 12 12 11 11 11 11 10 9 9 8 8 7 7 6 6 6
13 13 12 12 12 12 13 14 13 13 15 16 17 17 15 15 14 13 14 15 14 12 12 12 13 13 14 14 13 13 13 12 12 11 11 10 10 10 9 7 7 7 6
14 14 12 12 13 13 13 14 15 14 14 15 17 17 18 18 16 15 15 14 14 14 14 14 14 14 14 14 14 14 13 13 12 12 12 11 10 10 9 9 8 7 7
15 14 13 13 13 14 14 14 14 16 16 14 13 14 15 16 16 16 14 11 11 13 15 15 15 15 14 14 14 14 13 13 13 13 12 12 11 11 10 10 9 9 8
15 13 13 14 14 15 15 15 15 16 15 15 14 13 12 13 14 14 12 11 12 13 14 15 15 14 14 14 14 14 14 13 14 13 13 13 12 12 11 10 10 10 9
13 15 15 15 15 15 14 15 15 15 16 15 14 14 12 12 11 10 10 11 12 13 13 14 14 14 14 13 13 13 14 14 15 14 13 13 12 12 12 12 11 10 9
14 14 16 15 14 14 14 15 15 15 15 15 15 15 14 13 13 13 12 12 12 12 13 13 13 13 14 13 13 15 16 14 14 14 13 13 13 12 11 11 11 10 9
14 14 14 14 14 14 15 15 16 16 17 17 16 15 15 14 13 13 12 12 12 11 11 11 12 12 13 14 14 15 16 15 15 15 14 14 13 12 12 12 11 10 10
15 16 16 15 15 15 16 16 15 16 17 17 16 15 14 14 14 14 13 12 11 10 10 10 11 12 12 13 13 14 15 16 15 16 15 15 14 13 13 13 14 13 12
15 16 17 16 16 15 16 16 16 17 17 17 16 15 15 15 15 15 14 12 11 10 10 10 11 14 16 13 12 13 14 14 15 16 19 16 15 14 13 13 13 14 12
15 16 16 16 16 16 16 16 17 17 17 16 16 15 15 15 15 14 13 11 11 10 11 10 9 11 15 17 15 14 15 17 16 15 16 15 16 15 15 14 13 13 12
16 16 16 15 15 16 16 16 17 17 17 16 16 15 15 15 14 14 12 11 10 10 10 9 10 12 14 14 16 16 18 20 20 19 16 14 15 14 15 13 15 13 13
Wind_Direction
241 238 234 235 239 241 241 246 250 253 248 250 252 257 260 257 253 250 264 270 283 287 276 281 278 287 283 279 275 270 260 254 234 208 183 183 194 199 187 216 190 195 165
262 253 248 246 243 245 244 245 247 249 250 251 251 252 253 252 252 254 253 258 268 276 275 272 267 246 259 270 265 256 250 249 236 213 191 189 206 202 209 225 219 208 186
285 266 259 255 253 252 253 251 250 250 250 247 246 248 250 248 247 248 249 252 256 260 262 262 261 251 247 244 251 254 249 245 241 229 208 192 211 201 202 209 210 210 214
321 284 273 271 265 261 259 257 254 254 253 251 248 247 248 247 245 245 246 248 251 251 249 248 249 246 248 245 239 241 243 238 229 226 211 202 206 208 217 212 200 186 194
342 319 301 291 281 272 265 259 257 256 256 256 254 251 247 246 244 244 244 245 248 249 246 242 237 241 271 268 260 245 232 230 220 221 217 215 209 208 214 213 216 216 199
343 332 321 309 299 287 276 266 261 258 257 256 254 252 250 244 227 231 246 246 245 246 246 243 232 219 220 223 244 263 271 250 235 225 223 221 215 208 206 221 218 221 213
347 338 330 317 305 294 288 278 267 261 257 255 254 253 251 245 218 219 229 245 247 247 246 241 236 228 221 227 214 216 228 244 262 256 237 229 220 207 211 219 226 240 240
348 339 333 324 311 302 293 282 274 269 263 257 257 256 253 249 224 222 222 237 245 244 242 242 237 233 224 226 225 222 223 218 223 235 238 232 226 211 224 235 231 230 230
346 337 331 324 316 307 296 287 280 273 269 263 260 258 255 251 227 219 221 239 242 242 239 238 238 236 204 204 227 227 223 216 200 211 297 36 70 94 243 217 208 216 217
340 332 328 323 315 307 299 293 286 275 270 270 265 261 258 258 238 216 219 238 242 241 237 236 228 235 205 193 220 225 225 219 207 195 199 200 203 193 215 229 224 227 223
335 330 325 322 316 309 304 297 291 283 277 272 270 264 261 259 247 222 215 232 241 242 237 233 227 202 210 203 220 228 224 220 212 209 204 202 205 205 202 210 218 231 228
331 328 326 322 318 313 308 302 296 289 281 275 272 270 265 261 254 236 219 226 242 243 242 237 227 189 200 205 214 218 196 202 215 209 208 207 204 202 199 191 185 191 209
326 326 324 323 320 316 311 306 300 291 283 281 276 273 271 267 258 239 226 226 229 238 244 243 226 186 194 207 211 199 194 208 212 213 212 209 205 197 185 174 171 165 157
323 323 322 322 322 320 314 306 301 296 291 287 283 279 276 271 264 257 246 236 228 234 240 230 210 196 206 215 197 198 209 212 212 213 210 201 191 186 185 182 181 179 180
320 321 321 322 319 316 313 307 300 294 291 288 287 284 280 274 269 267 263 253 241 232 228 224 218 210 208 210 210 205 205 206 207 210 204 196 191 188 187 188 191 193 200
320 321 320 318 316 314 312 309 293 278 279 271 268 271 277 276 282 270 259 256 250 233 223 223 219 215 211 208 208 206 205 205 204 203 202 197 193 190 185 184 188 195 199
314 314 314 314 313 312 311 310 310 302 279 267 265 263 263 270 271 266 259 251 240 221 224 225 221 218 214 210 208 207 205 204 201 199 199 197 194 190 186 185 188 192 193
309 309 308 307 307 307 307 306 305 305 306 303 290 273 266 264 262 260 255 247 242 224 226 226 222 219 215 211 208 205 203 200 199 198 197 195 193 190 189 188 190 191 188
305 305 307 307 304 303 302 302 301 301 299 299 300 296 283 276 267 257 241 243 241 234 227 226 223 219 214 211 207 203 199 197 196 195 194 192 191 191 190 190 188 179 187
300 297 298 301 301 301 301 301 301 301 300 298 296 297 299 295 288 278 258 250 247 242 235 228 223 218 213 208 203 200 198 195 194 194 192 190 189 190 189 188 186 184 189
299 299 297 296 298 300 301 301 300 300 299 297 295 295 293 288 283 276 267 257 251 247 241 235 226 217 212 207 201 199 197 195 193 192 190 189 188 187 186 185 185 185 184
297 296 297 297 297 297 299 301 300 298 299 297 295 294 287 280 278 275 270 263 257 251 246 239 231 219 210 205 200 197 197 195 192 189 187 186 185 183 181 181 181 180 181
292 294 294 294 294 295 295 296 297 297 298 297 295 294 291 286 282 277 273 268 263 256 247 239 233 222 212 207 203 200 198 195 190 185 182 181 181 180 180 180 179 178 181
293 293 293 294 294 294 295 295 296 296 297 296 294 293 291 287 282 278 273 268 263 258 248 237 231 222 212 206 203 201 199 191 184 183 179 177 177 177 177 177 177 179 180
292 292 293 293 293 293 293 294 295 296 296 295 293 292 291 287 283 280 274 266 261 255 248 238 228 220 212 206 202 197 182 172 172 172 173 174 173 173 174 174 174 174 174
291 292 293 292 292 292 293 294 295 296 296 295 293 292 290 287 283 280 274 265 258 251 243 231 221 217 210 206 201 186 167 162 161 160 166 168 168 170 170 172 170 172 172
Height
1518 1519 1519 1519 1519 1519 1519 1519 1519 1519 1518 1518 1517 1517 1516 1515 1514 1513 1512 1511 1510 1510 1509 1507 1506 1505 1505 1504 1504 1504 1504 1505 1505 1505 1505 1506 1506 1507 1507 1508 1509 1510 1511
1516 1516 1516 1516 1516 1516 1516 1516 1517 1517 1516 1516 1515 1515 1514 1513 1513 1512 1511 1510 1509 1508 1507 1507 1506 1504 1504 1504 1503 1503 1503 1503 1504 1504 1504 1504 1505 1505 1505 1506 1507 1508 1509
1514 1514 1514 1514 1513 1513 1514 1514 1513 1513 1513 1513 1512 1512 1511 1511 1510 1509 1509 1508 1508 1507 1506 1505 1504 1504 1503 1502 1502 1502 1502 1502 1502 1502 1503 1503 1503 1503 1503 1504 1505 1506 1507
1513 1512 1511 1511 1511 1510 1510 1510 1510 1510 1510 1509 1509 1509 1508 1507 1507 1507 1506 1506 1505 1505 1504 1503 1502 1502 1501 1501 1500 1500 1500 1500 1500 1501 1501 1501 1501 1501 1502 1503 1504 1504 1505
1512 1510 1509 1509 1508 1507 1507 1506 1506 1505 1505 1505 1505 1505 1504 1503 1503 1503 1503 1503 1502 1502 1501 1501 1500 1499 1498 1498 1499 1498 1498 1499 1499 1499 1499 1500 1500 1500 1501 1501 1502 1502 1503
1510 1509 1508 1506 1505 1504 1503 1502 1501 1501 1501 1500 1500 1500 1499 1499 1498 1498 1499 1499 1499 1499 1498 1498 1497 1496 1496 1495 1495 1496 1496 1497 1497 1497 1497 1498 1498 1498 1499 1499 1500 1500 1501
1509 1507 1505 1504 1502 1501 1499 1498 1497 1496 1496 1495 1494 1494 1493 1494 1493 1493 1494 1494 1495 1495 1495 1494 1494 1493 1493 1493 1493 1493 1493 1493 1494 1495 1495 1496 1496 1496 1496 1497 1498 1498 1499
1507 1505 1503 1501 1499 1497 1495 1494 1493 1492 1491 1489 1488 1488 1487 1487 1487 1487 1488 1489 1489 1489 1489 1489 1489 1489 1489 1490 1490 1490 1491 1491 1491 1492 1493 1493 1493 1493 1493 1495 1495 1496 1496
1505 1503 1500 1498 1495 1493 1491 1489 1488 1487 1485 1484 1483 1482 1480 1480 1480 1481 1482 1482 1483 1483 1483 1483 1484 1484 1484 1485 1486 1487 1487 1488 1488 1488 1489 1489 1489 1490 1490 1491 1492 1493 1494
1503 1500 1497 1495 1492 1489 1487 1485 1483 1481 1479 1478 1477 1475 1474 1473 1473 1474 1475 1476 1476 1477 1477 1477 1477 1478 1479 1479 1480 1482 1483 1484 1484 1485 1485 1486 1486 1487 1487 1488 1489 1491 1491
1500 1497 1494 1491 1488 1485 1482 1480 1477 1475 1473 1472 1470 1469 1468 1467 1466 1466 1467 1468 1469 1470 1470 1470 1470 1470 1472 1473 1475 1477 1478 1479 1480 1481 1481 1482 1483 1483 1483 1484 1485 1487 1488
1496 1493 1490 1487 1484 1481 1478 1475 1472 1470 1467 1465 1464 1462 1461 1460 1459 1458 1458 1459 1461 1462 1462 1463 1464 1464 1465 1467 1469 1470 1472 1474 1475 1476 1477 1478 1479 1479 1480 1480 1481 1482 1484
1493 1490 1486 1483 1480 1476 1473 1470 1467 1464 1462 1459 1458 1455 1454 1452 1451 1451 1450 1450 1451 1452 1454 1455 1456 1457 1458 1460 1462 1464 1466 1468 1469 1471 1472 1473 1474 1475 1476 1476 1477 1478 1479
1489 1486 1482 1479 1475 1472 1468 1465 1462 1459 1456 1454 1451 1449 1447 1445 1444 1443 1443 1442 1442 1443 1444 1446 1448 1450 1451 1453 1454 1457 1459 1461 1463 1465 1466 1467 1469 1470 1471 1472 1474 1475 1476
1485 1482 1478 1474 1470 1466 1463 1460 1456 1453 1451 1448 1445 1443 1440 1438 1437 1436 1435 1435 1435 1435 1436 1437 1439 1440 1442 1445 1447 1449 1451 1453 1455 1458 1460 1461 1463 1464 1466 1468 1469 1471 1473
1481 1478 1474 1470 1466 1461 1457 1453 1449 1446 1442 1439 1436 1434 1432 1430 1428 1427 1426 1426 1426 1427 1428 1428 1429 1431 1433 1435 1438 1441 1443 1445 1448 1450 1453 1455 1457 1459 1461 1463 1465 1467 1469
1477 1473 1469 1465 1461 1456 1452 1447 1442 1437 1434 1431 1428 1425 1423 1420 1419 1417 1416 1416 1416 1417 1417 1418 1419 1421 1424 1426 1429 1432 1434 1437 1440 1443 1445 1448 1451 1453 1455 1458 1460 1462 1464
1472 1468 1464 1460 1456 1451 1447 1442 1437 1432 1427 1422 1419 1417 1414 1411 1409 1407 1406 1406 1405 1405 1406 1407 1409 1412 1414 1417 1420 1422 1426 1429 1432 1435 1438 1441 1444 1446 1449 1452 1454 1457 1459
1467 1463 1459 1454 1450 1445 1441 1436 1431 1426 1421 1416 1412 1409 1406 1403 1400 1398 1397 1396 1395 1395 1395 1397 1399 1402 1405 1407 1411 1414 1417 1419 1423 1426 1429 1433 1436 1440 1443 1446 1448 1451 1453
1460 1456 1452 1448 1443 1439 1435 1430 1425 1420 1415 1410 1406 1402 1399 1396 1392 1389 1388 1387 1386 1386 1387 1387 1389 1392 1395 1398 1401 1404 1408 1411 1414 1418 1421 1425 1429 1432 1436 1439 1442 1445 1447
1454 1449 1445 1441 1437 1433 1428 1423 1419 1414 1408 1403 1399 1396 1392 1389 1385 1382 1380 1378 1377 1377 1377 1378 1380 1382 1385 1388 1391 1394 1398 1402 1405 1409 1413 1417 1421 1425 1429 1432 1436 1439 1442
1447 1443 1438 1434 1430 1426 1421 1417 1412 1407 1402 1397 1392 1388 1384 1381 1377 1374 1371 1370 1369 1368 1368 1369 1370 1372 1375 1378 1381 1385 1389 1392 1396 1400 1405 1409 1414 1418 1421 1425 1429 1432 1436
1439 1435 1431 1427 1422 1418 1413 1409 1404 1399 1394 1389 1384 1380 1376 1372 1369 1365 1363 1361 1360 1359 1359 1359 1360 1362 1365 1369 1372 1375 1379 1383 1387 1391 1396 1401 1406 1410 1414 1418 1422 1426 1429
1432 1428 1423 1419 1415 1410 1406 1401 1396 1391 1386 1381 1376 1372 1368 1364 1360 1357 1354 1352 1351 1350 1350 1350 1351 1353 1356 1359 1363 1367 1371 1375 1380 1384 1388 1393 1398 1403 1408 1412 1416 1420 1423
1423 1420 1415 1411 1407 1402 1397 1393 1388 1383 1378 1373 1368 1363 1359 1355 1351 1348 1345 1343 1342 1341 1341 1342 1343 1345 1347 1350 1354 1358 1362 1367 1372 1376 1381 1386 1391 1396 1401 1405 1409 1413 1417
1415 1411 1407 1403 1398 1394 1389 1385 1380 1375 1369 1364 1359 1355 1350 1345 1342 1338 1336 1334 1333 1333 1333 1333 1335 1337 1339 1343 1347 1351 1355 1360 1365 1370 1375 1380 1384 1389 1394 1399 1403 1408 1412